Regional Weather Roundup
Issued by NWS

Home | Current Version | Previous Version | Graphics & Text | Print | Product List | Glossary On
Versions: 1 2 3 4 5 6 7 8 9 10 11 12 13 14 15 16 17 18 19 20 21 22 23 24 25 26 27 28 29 30 31 32 33 34 35 36 37 38 39 40 41 42 43 44 45 46 47 48 49 50
000
ASUS43 KOAX 291702
RWRNE

WEATHER ROUNDUP FOR NEBRASKA
NATIONAL WEATHER SERVICE OMAHA NE
1200 PM CDT FRI APR 29 2016

NOTES: SATELLITE DATA IS BEING USED TO AUGMENT CLOUD COVER ABOVE
       12000 FEET.
       "FAIR" INDICATES FEW OR NO CLOUDS BELOW 12,000 FEET WITH NO
       SIGNIFICANT WEATHER AND/OR OBSTRUCTIONS TO VISIBILITY.

  * THESE STATIONS DO NOT REPORT WEATHER SUCH AS RAIN...SNOW OR FOG.

NEZ001>004-019>022-054>056-291800-
NEBRASKA PANHANDLE

CITY           SKY/WX    TMP DP  RH WIND       PRES   REMARKS
SCOTTSBLUFF    CLOUDY    42  34  73 NE9       30.01R
ALLIANCE       CLOUDY    45  36  70 NE10      30.01R
CHADRON        CLOUDY    42  35  76 NE12      30.03F
KIMBALL        CLOUDY    38  33  82 E6        29.99R WCI  33
SIDNEY         CLOUDY    41  34  76 E9        30.01R
$$

NEZ057>060-069>072-079>082-291800-
SOUTHWEST NEBRASKA

CITY           SKY/WX    TMP DP  RH WIND       PRES   REMARKS
NORTH PLATTE   CLOUDY    43  36  76 E10       30.05R
IMPERIAL       CLOUDY    42  36  79 NE16      30.02S
LEXINGTON      CLOUDY    43  38  80 E16       30.05F
MCCOOK         CLOUDY    44  36  73 E16G25    30.02S
$$

NEZ005>010-023>029-035>040-094-291800-
NORTH CENTRAL NEBRASKA

CITY           SKY/WX    TMP DP  RH WIND       PRES   REMARKS
VALENTINE      CLOUDY    42  36  79 NE9       30.05S
BROKEN BOW     CLOUDY    44  38  79 E13       30.06S
ORD            CLOUDY    42  39  89 E12       30.07S
$$

NEZ041-046>049-061>064-073>077-083>087-291800-
SOUTH CENTRAL NEBRASKA

CITY           SKY/WX    TMP DP  RH WIND       PRES   REMARKS
GRAND ISLAND   CLOUDY    45  38  76 E12       30.07F
AURORA         CLOUDY    45  40  83 NE14      30.07F
HASTINGS       CLOUDY    43  38  82 NE14      30.05F
KEARNEY *      CLOUDY    45  36  70 E14       30.07F
YORK           CLOUDY    45  39  81 E12       30.08F
$$

NEZ011>018-030>034-042>045-291800-
NORTHEAST NEBRASKA

CITY           SKY/WX    TMP DP  RH WIND       PRES   REMARKS
NORFOLK        CLOUDY    43  38  82 NE10      30.10F
ALBION         CLOUDY    44  38  79 E8        30.09F
BLAIR          CLOUDY    46  40  82 N9        30.08F
COLUMBUS *     CLOUDY    45  34  65 NE10      30.10F
FREMONT        CLOUDY    45  40  81 NE6       30.09F
TEKAMAH        CLOUDY    44  42  93 NE9       30.11F FOG
$$

NEZ050>053-065>068-078-088>093-291800-
SOUTHEAST NEBRASKA

CITY           SKY/WX    TMP DP  RH WIND       PRES   REMARKS
LINCOLN        CLOUDY    48  39  71 NE12      30.08F
OMAHA EPPLEY   CLOUDY    48  39  71 NE12      30.08F
FALLS CITY     CLOUDY    49  43  80 E13       30.04F
$$

NEZ044-045-051>053-067-291800-
OMAHA AREA

CITY           SKY/WX    TMP DP  RH WIND       PRES   REMARKS
OMAHA EPPLEY   CLOUDY    48  39  71 NE12      30.08F
BLAIR          CLOUDY    46  40  82 N9        30.08F
FREMONT        CLOUDY    45  40  81 NE6       30.09F
OFFUTT AFB     CLOUDY    48  40  75 NE7       30.08F
$$



USA.gov is the U.S. government's official web portal to all federal, state and local government web resources and services.